TimeEST,TemperatureF,Dew PointF,Humidity,Sea Level PressureIn,VisibilityMPH,Wind Direction,Wind SpeedMPH,Gust SpeedMPH,PrecipitationIn,Events,Conditions,WindDirDegrees,DateUTC
12:56 AM,43.0,41.0,93,29.60,7.0,ENE,5.8,-,0.05,Rain,Light Rain,60,2012-12-18 05:56:00
1:56 AM,44.1,41.0,89,29.57,7.0,East,4.6,-,0.10,Rain,Light Rain,100,2012-12-18 06:56:00
2:56 AM,43.0,41.0,93,29.56,8.0,ENE,5.8,-,0.09,Rain,Rain,60,2012-12-18 07:56:00
3:56 AM,42.1,39.9,92,29.52,6.0,NE,10.4,-,0.13,Rain,Rain,40,2012-12-18 08:56:00
4:32 AM,42.8,39.2,87,29.51,9.0,ENE,6.9,-,0.04,Rain,Rain,60,2012-12-18 09:32:00
4:56 AM,42.1,39.9,92,29.51,7.0,NE,8.1,-,0.07,Rain,Light Rain,40,2012-12-18 09:56:00
5:26 AM,42.8,39.2,87,29.50,8.0,NE,4.6,-,0.01,Rain,Light Rain,40,2012-12-18 10:26:00
5:36 AM,42.8,39.2,87,29.50,4.0,NE,8.1,-,0.01,Rain,Light Rain,40,2012-12-18 10:36:00
5:48 AM,41.0,39.2,93,29.50,3.0,NNE,6.9,-,0.02,Rain,Light Rain,30,2012-12-18 10:48:00
5:56 AM,41.0,39.9,96,29.51,4.0,NE,8.1,-,0.02,Rain,Light Rain,40,2012-12-18 10:56:00
6:06 AM,41.0,39.2,93,29.50,4.0,NE,8.1,-,0.00,Rain,Light Rain,40,2012-12-18 11:06:00
6:42 AM,41.0,39.2,93,29.50,4.0,NE,6.9,-,0.00,Rain,Light Rain,40,2012-12-18 11:42:00
6:56 AM,41.0,39.2,93,29.50,5.0,NE,10.4,-,N/A,Rain,Light Rain,50,2012-12-18 11:56:00
7:56 AM,39.9,39.0,97,29.49,10.0,NE,5.8,-,0.00,,Overcast,40,2012-12-18 12:56:00
8:56 AM,39.9,37.9,93,29.48,4.0,NNE,5.8,-,N/A,,Overcast,30,2012-12-18 13:56:00
9:56 AM,41.0,39.0,93,29.47,6.0,NNE,5.8,-,0.00,Rain,Light Rain,20,2012-12-18 14:56:00
10:56 AM,41.0,39.9,96,29.47,10.0,North,4.6,-,0.02,Rain,Light Rain,10,2012-12-18 15:56:00
11:23 AM,41.0,39.2,93,29.45,9.0,Calm,Calm,-,0.01,Rain,Light Rain,0,2012-12-18 16:23:00
11:30 AM,41.0,39.2,93,29.45,8.0,North,4.6,-,0.01,Rain,Light Rain,360,2012-12-18 16:30:00
11:56 AM,42.1,39.9,92,29.45,8.0,North,3.5,-,0.02,Rain,Light Rain,360,2012-12-18 16:56:00
12:09 PM,42.8,39.2,87,29.44,7.0,Calm,Calm,-,0.01,Rain,Light Rain,0,2012-12-18 17:09:00
12:22 PM,42.8,41.0,93,29.44,8.0,Calm,Calm,-,0.02,Rain,Light Rain,0,2012-12-18 17:22:00
12:56 PM,43.0,41.0,93,29.45,9.0,NW,5.8,-,0.02,Rain,Light Rain,320,2012-12-18 17:56:00
1:31 PM,42.8,39.2,87,29.44,7.0,NNW,6.9,-,0.01,Rain,Light Rain,330,2012-12-18 18:31:00
1:48 PM,42.8,39.2,87,29.45,7.0,NNW,6.9,-,0.01,Rain,Light Rain,330,2012-12-18 18:48:00
1:56 PM,41.0,39.0,93,29.46,10.0,NW,8.1,-,0.02,Rain,Light Rain,310,2012-12-18 18:56:00
2:42 PM,39.2,37.4,93,29.47,10.0,NW,9.2,-,0.01,Rain,Light Rain,320,2012-12-18 19:42:00
2:56 PM,39.0,37.0,93,29.49,10.0,WNW,6.9,-,0.01,Rain,Light Rain,290,2012-12-18 19:56:00
3:56 PM,37.0,35.1,93,29.52,10.0,WNW,8.1,-,0.01,Rain,Light Rain,290,2012-12-18 20:56:00
4:56 PM,36.0,34.0,93,29.55,10.0,WNW,9.2,-,0.00,Rain,Light Rain,300,2012-12-18 21:56:00
5:01 PM,35.6,33.8,93,29.54,10.0,WNW,6.9,-,0.00,Rain,Light Rain,300,2012-12-18 22:01:00
5:23 PM,35.6,33.8,93,29.55,10.0,WNW,4.6,-,0.00,Rain,Light Rain,300,2012-12-18 22:23:00
5:54 PM,35.6,33.8,93,29.56,10.0,West,6.9,-,0.01,Rain,Light Rain,280,2012-12-18 22:54:00
5:56 PM,35.1,33.1,92,29.57,10.0,WNW,5.8,-,0.01,Rain,Light Rain,290,2012-12-18 22:56:00
6:23 PM,35.6,33.8,93,29.57,10.0,West,4.6,-,0.00,,Overcast,260,2012-12-18 23:23:00
6:34 PM,35.6,33.8,93,29.58,10.0,WSW,4.6,-,0.00,,Overcast,250,2012-12-18 23:34:00
6:56 PM,35.1,34.0,96,29.60,9.0,WSW,4.6,-,0.01,Rain,Light Rain,240,2012-12-18 23:56:00
7:36 PM,35.6,33.8,93,29.60,10.0,WSW,5.8,-,0.01,Rain,Light Rain,250,2012-12-19 00:36:00
7:56 PM,35.1,33.1,92,29.61,8.0,West,6.9,-,0.02,Rain,Light Rain,260,2012-12-19 00:56:00
8:56 PM,36.0,34.0,93,29.62,10.0,West,5.8,-,0.02,Rain,Light Rain,260,2012-12-19 01:56:00
9:36 PM,37.4,35.6,93,29.61,10.0,West,4.6,-,0.00,Rain,Light Rain,260,2012-12-19 02:36:00
9:56 PM,37.0,35.1,93,29.63,10.0,West,4.6,-,0.00,Rain,Light Rain,260,2012-12-19 02:56:00
10:18 PM,37.4,35.6,93,29.62,10.0,West,3.5,-,0.00,Rain,Light Rain,260,2012-12-19 03:18:00
10:23 PM,37.4,35.6,93,29.62,10.0,West,5.8,-,0.00,Rain,Light Rain,260,2012-12-19 03:23:00
10:56 PM,37.9,36.0,93,29.63,10.0,West,8.1,-,0.00,Rain,Light Rain,280,2012-12-19 03:56:00
11:06 PM,37.4,35.6,93,29.62,10.0,West,8.1,-,0.00,Rain,Light Rain,280,2012-12-19 04:06:00
11:18 PM,37.4,35.6,93,29.63,10.0,West,8.1,-,0.00,Rain,Light Rain,280,2012-12-19 04:18:00
11:37 PM,37.4,35.6,93,29.63,10.0,West,10.4,-,0.00,Rain,Light Rain,280,2012-12-19 04:37:00
11:56 PM,37.9,35.1,89,29.64,10.0,West,9.2,-,0.00,Rain,Light Rain,280,2012-12-19 04:56:00